User: anonymous   Login
Location: Unspecified
(0.0000°N, 0.0000°E)
Time: 09:01:22
(UTC+00:00)
Language:

USA 264 - Orbit

View from above orbital plane
View from above orbital plane
View from above satellite
View from above satellite

Ground track
Ground track

The orbit data is extracted from the following two-line orbital elements,

1 40964U 15058A   17193.86672735 0.00000000  00000-0  00000-0 0    00
2 40964  63.4367  95.4322 0070000 173.9673 186.0327 13.40732328    02
Epoch (UTC): 12 July 2017 20:48:05
Eccentricity: 0.0070000
inclination: 63.4367°
perigee height: 1054 km
apogee height: 1159 km
right ascension of ascending node: 95.4322°
argument of perigee: 173.9673°
revolutions per day: 13.40732328
mean anomaly at epoch: 186.0327°
orbit number at epoch: 0

The dashed part of the orbit path shows where the satellite is in the earth's shadow,  

DLR